EW4552 Weather Reports


time (UTC)temp
C
wind
direction
speed
KPH
gust
KPH
rain 1hr
cm
rain 24hr
cm
rain mn
cm
humidity
%
barometer
mb
20260901124457 15 1 0.0 3.2 0.30 0.53 0.53 1 1019.6
20260901123957 15 295 0.0 3.2 0.28 0.51 0.51 1 1019.7
20260901123457 15 1 0.0 1.6 0.25 0.46 0.46 1 1019.7
20260901122956 15 269 0.0 1.6 0.25 0.43 0.43 1 1019.6
20260901122456 15 314 0.0 1.6 0.25 0.41 0.41 1 1019.7
20260901121956 15 223 0.0 1.6 0.28 0.38 0.38 1 1019.8
20260901121456 15 295 0.0 1.6 0.30 0.36 0.36 1 1019.8
20260901120957 15 89 0.0 1.6 0.33 0.36 0.36 1 1019.9
20260901115959 15 269 0.0 1.6 0.33 0.33 0.33 1 1019.9
20260901115458 15 46 0.0 1.6 0.30 0.30 0.30 1 1019.9
20260901114957 15 223 0.0 1.6 0.28 0.28 0.28 1 1019.9
20260901114456 15 269 0.0 1.6 0.23 0.23 0.23 1 1020.0
20260901113959 15 46 0.0 1.6 0.23 0.23 0.23 1 1020.0
20260901113501 15 46 0.0 1.6 0.20 0.20 0.20 1 1019.9
20260901113001 15 63 0.0 1.6 0.18 0.18 0.18 1 1019.8
20260901112456 15 46 0.0 1.6 0.15 0.15 0.15 23 1019.7
20260901111458 14 241 0.0 1.6 0.05 0.05 0.05 25 1019.5
20260901110956 14 269 0.0 1.6 0.03 0.03 0.03 23 1019.2
20260901110457 14 46 0.0 1.6 0.00 0.00 0.00 25 1019.1
20260901105959 14 178 0.0 1.6 0.00 0.00 0.00 21 1019.0
20260901105457 14 223 0.0 1.6 0.00 0.00 0.00 24 1019.1
20260901104957 14 46 0.0 1.6 0.00 0.00 0.00 24 1019.0
20260901104456 14 46 0.0 1.6 0.00 0.00 0.00 23 1018.7
20260901103957 14 89 0.0 1.6 0.00 0.00 0.00 19 1018.6
20260901103456 14 269 0.0 1.6 0.00 0.00 0.00 22 1018.9
20260901102956 14 314 0.0 1.6 0.00 0.00 0.00 20 1018.9
20260901102458 14 241 0.0 1.6 0.00 0.00 0.00 18 1018.6
20260901101957 14 1 0.0 1.6 0.00 0.00 0.00 18 1018.6
20260901095959 14 28 0.0 1.6 0.00 0.00 0.00 22 1018.6
20260901095457 14 46 0.0 1.6 0.00 0.00 0.00 26 1018.6
20260901093956 14 46 0.0 1.6 0.00 0.00 0.00 24 1018.4
20260901093458 14 63 0.0 3.2 0.00 0.00 0.00 28 1018.2
20260901092457 13 178 0.0 1.6 0.00 0.00 0.00 24 1018.4
20260901090956 13 1 0.0 1.6 0.00 0.00 0.00 22 1018.4
20260901090457 13 46 0.0 1.6 0.00 0.00 0.00 23 1018.3
20260901084957 13 241 0.0 1.6 0.00 0.00 0.00 25 1018.4
20260901083956 13 223 0.0 1.6 0.00 0.00 0.00 27 1018.5
20260901083456 13 46 0.0 1.6 0.00 0.00 0.00 30 1018.5
20260901082956 13 1 0.0 1.6 0.00 0.00 0.00 28 1018.5
20260901082456 13 89 0.0 0.0 0.00 0.00 0.00 28 1018.6
20260901081457 13 1 0.0 0.0 0.00 0.00 0.00 31 1018.5
20260901081001 13 46 0.0 1.6 0.00 0.00 0.00 32 1018.4
20260901080501 13 178 0.0 1.6 0.00 0.00 0.00 34 1018.4
20260901075957 13 269 0.0 1.6 0.00 0.00 0.00 35 1018.6
20260901075501 13 46 0.0 1.6 0.00 0.00 0.00 36 1018.6
20260901074956 13 89 0.0 1.6 0.00 0.00 0.00 39 1018.6
20260901074457 13 1 0.0 0.0 0.00 0.00 0.00 40 1018.6
20260901073956 13 269 0.0 1.6 0.00 0.00 0.00 42 1018.6
20260901073456 13 46 0.0 1.6 0.00 0.00 0.00 44 1018.6
20260901072957 13 46 0.0 1.6 0.00 0.00 0.00 46 1018.6
20260901072457 13 269 0.0 1.6 0.00 0.00 0.00 47 1018.7
20260901071956 13 178 0.0 1.6 0.00 0.00 0.00 49 1018.8
20260901071457 13 1 0.0 1.6 0.00 0.00 0.00 51 1018.9
20260901070957 13 269 0.0 1.6 0.00 0.00 0.00 51 1018.8
20260901070457 13 269 0.0 1.6 0.00 0.00 0.00 52 1018.8
20260901065956 13 46 0.0 1.6 0.00 0.00 0.00 52 1019.0
20260901065456 13 46 0.0 1.6 0.00 0.00 0.00 53 1018.9
20260901064956 13 46 0.0 1.6 0.00 0.00 0.00 53 1018.8
20260901064456 13 223 0.0 1.6 0.00 0.00 0.00 54 1018.7
20260901063955 13 46 0.0 1.6 0.00 0.00 0.00 53 1018.9
20260901062955 13 1 0.0 1.6 0.00 0.00 0.00 53 1019.1
20260901062455 13 206 0.0 1.6 0.00 0.00 0.00 54 1019.1
20260901061955 13 63 0.0 1.6 0.00 0.00 0.00 54 1019.1
20260901061455 13 46 0.0 1.6 0.00 0.00 0.00 54 1019.1
20260901060955 13 46 0.0 1.6 0.00 0.00 0.00 54 1019.1
20260901060455 13 152 0.0 1.6 0.00 0.00 0.00 54 1019.2
20260901055956 13 178 0.0 1.6 0.00 0.00 0.00 54 1019.3
20260901055455 13 269 0.0 1.6 0.00 0.00 0.00 54 1019.2
20260901053955 13 269 0.0 1.6 0.00 0.00 0.00 54 1019.1
20260901053456 13 1 0.0 1.6 0.00 0.00 0.00 55 1019.1
20260901052954 13 269 0.0 1.6 0.00 0.00 0.00 54 1019.2
20260901052456 13 135 0.0 1.6 0.00 0.00 0.00 54 1019.4
20260901051456 14 241 0.0 1.6 0.00 0.00 0.00 54 1019.4
20260901050956 14 223 0.0 1.6 0.00 0.00 0.00 54 1019.2
20260901050456 14 269 0.0 1.6 0.00 0.00 0.00 54 1019.3
20260901045458 14 269 0.0 1.6 0.00 0.00 0.00 53 1019.2
20260901044959 14 46 0.0 1.6 0.00 0.00 0.00 53 1019.2
20260901044501 14 269 0.0 1.6 0.00 0.00 0.00 53 1019.2
20260901044004 14 1 0.0 1.6 0.00 0.00 0.00 53 1019.3
20260901043501 14 46 0.0 0.0 0.00 0.00 0.00 52 1019.2
20260901043004 14 1 0.0 1.6 0.00 0.00 0.00 52 1019.1
20260901042459 14 269 0.0 1.6 0.00 0.00 0.00 53 1019.0
20260901041959 14 206 0.0 1.6 0.00 0.00 0.00 53 1019.0
20260901041459 14 46 0.0 1.6 0.00 0.00 0.00 53 1019.1
20260901040958 14 1 0.0 1.6 0.00 0.00 0.00 53 1019.1
20260901035959 14 46 0.0 1.6 0.00 0.00 0.00 53 1019.1
20260901035458 14 1 0.0 1.6 0.00 0.00 0.00 54 1019.2
20260901034459 14 241 0.0 1.6 0.00 0.00 0.00 55 1019.3
20260901033459 14 46 0.0 1.6 0.00 0.00 0.00 56 1019.3
20260901032958 14 46 0.0 1.6 0.00 0.00 0.00 57 1019.2
20260901032459 14 269 0.0 1.6 0.00 0.00 0.00 57 1019.3
20260901030959 15 46 0.0 0.0 0.00 0.00 0.00 58 1019.2
20260901030458 15 46 0.0 0.0 0.00 0.00 0.00 58 1019.1
20260901025459 15 269 0.0 0.0 0.00 0.00 0.00 58 1019.2
20260901024959 15 46 0.0 1.6 0.00 0.00 0.00 58 1019.3
20260901024459 15 46 0.0 1.6 0.00 0.00 0.00 58 1019.3
20260901023959 15 1 0.0 1.6 0.00 0.00 0.00 58 1019.2
20260901023458 15 46 0.0 1.6 0.00 0.00 0.00 58 1019.3
20260901022958 15 1 0.0 1.6 0.00 0.00 0.00 58 1019.3
20260901021959 16 223 0.0 1.6 0.00 0.00 0.00 59 1019.2
20260901020958 16 269 0.0 1.6 0.00 0.00 0.00 59 1019.1
20260901020458 16 46 0.0 1.6 0.00 0.00 0.00 59 1019.1
20260901015958 16 1 0.0 1.6 0.00 0.00 0.00 59 1019.2
20260901014958 16 135 0.0 1.6 0.00 0.00 0.00 59 1019.1
20260901014459 16 269 0.0 1.6 0.00 0.00 0.00 59 1019.2
20260901013459 16 223 0.0 1.6 0.00 0.00 0.00 60 1019.0
20260901012458 17 46 0.0 1.6 0.00 0.00 0.00 60 1019.0
20260901012001 17 89 0.0 1.6 0.00 0.00 0.00 60 1019.0
20260901011504 17 241 0.0 1.6 0.00 0.00 0.00 60 1019.0
20260901010501 17 46 0.0 1.6 0.00 0.00 0.00 60 1019.0
20260901010001 17 250 0.0 1.6 0.00 0.00 0.00 60 1019.0
20260901005500 17 269 0.0 1.6 0.00 0.00 0.00 61 1019.1
20260901004958 18 46 0.0 0.0 0.00 0.00 0.00 61 1019.1
20260901004459 18 269 0.0 1.6 0.00 0.00 0.00 61 1019.1
20260901003958 18 178 0.0 1.6 0.00 0.00 0.00 61 1019.0
20260901003458 18 223 0.0 1.6 0.00 0.00 0.00 61 1019.0
20260901002959 18 46 0.0 1.6 0.00 0.00 0.00 61 1018.9
20260901002459 18 46 0.0 1.6 0.00 0.00 0.00 61 1018.9
20260901001959 19 314 0.0 1.6 0.00 0.00 0.00 61 1018.8
20260901001459 19 1 0.0 1.6 0.00 0.00 0.00 61 1018.8
20260901000958 19 1 0.0 1.6 0.00 0.00 0.00 61 1018.7
20260901000459 20 89 0.0 1.6 0.00 0.00 0.00 61 1018.6
20260831235957 20 1 0.0 1.6 0.00 0.00 0.00 61 1018.7
20260831234957 20 46 0.0 0.0 0.00 0.00 0.00 61 1018.8
20260831234458 20 269 0.0 1.6 0.00 0.00 0.00 60 1018.6
20260831233957 21 1 0.0 1.6 0.00 0.00 0.00 61 1018.6
20260831233457 21 314 0.0 1.6 0.00 0.00 0.00 60 1018.5
20260831232957 21 178 0.0 1.6 0.00 0.00 0.00 60 1018.5
20260831232458 21 46 0.0 1.6 0.00 0.00 0.00 60 1018.6
20260831231957 21 46 0.0 1.6 0.00 0.00 0.00 60 1018.5
20260831231456 22 269 0.0 1.6 0.00 0.00 0.00 60 1018.6
20260831230957 22 206 0.0 1.6 0.00 0.00 0.00 60 1018.7
20260831230458 22 178 0.0 1.6 0.00 0.00 0.00 60 1018.8
20260831230000 22 89 0.0 1.6 0.00 0.00 0.00 60 1018.9
20260831225458 22 269 0.0 1.6 0.00 0.00 0.00 60 1018.9
20260831224958 23 1 0.0 1.6 0.00 0.00 0.00 60 1018.9
20260831224459 23 314 0.0 1.6 0.00 0.00 0.00 59 1018.8
20260831223959 23 1 0.0 1.6 0.00 0.00 0.00 59 1018.7
20260831223458 23 269 0.0 1.6 0.00 0.00 0.00 59 1018.8
20260831222959 23 46 0.0 3.2 0.00 0.00 0.00 59 1018.7
20260831222458 23 314 0.0 3.2 0.00 0.00 0.00 59 1018.6
20260831221958 24 1 0.0 1.6 0.00 0.00 0.00 59 1018.6
20260831221458 24 63 0.0 3.2 0.00 0.00 0.00 59 1018.6
20260831220959 24 1 0.0 3.2 0.00 0.00 0.00 58 1018.6
20260831220458 25 89 0.0 3.2 0.00 0.00 0.00 58 1018.5
20260831220001 25 223 0.0 1.6 0.00 0.00 0.00 58 1018.6
20260831215458 25 117 0.0 3.2 0.00 0.00 0.00 58 1018.6
20260831214958 25 46 0.0 3.2 0.00 0.00 0.00 57 1018.6
20260831214459 25 152 1.6 4.8 0.00 0.00 0.00 56 1018.6
20260831214004 25 178 1.6 6.4 0.00 0.00 0.00 55 1018.6
20260831213501 25 178 3.2 6.4 0.00 0.00 0.00 54 1018.5
20260831212958 25 135 1.6 6.4 0.00 0.00 0.00 54 1018.5
20260831211458 26 223 1.6 16.1 0.00 0.00 0.00 53 1018.5
20260831211000 26 124 0.0 8.0 0.00 0.00 0.00 55 1018.4
20260831210459 26 1 0.0 1.6 0.00 0.00 0.00 54 1018.5
20260831210001 27 46 0.0 3.2 0.00 0.00 0.00 53 1018.5
20260831205459 27 89 0.0 3.2 0.00 0.00 0.00 52 1018.6
20260831204959 27 178 1.6 3.2 0.00 0.00 0.00 51 1018.7
20260831203959 28 197 1.6 8.0 0.00 0.00 0.00 48 1018.7
20260831202959 28 72 1.6 4.8 0.00 0.00 0.00 49 1018.8
20260831202459 29 46 1.6 3.2 0.00 0.00 0.00 48 1018.8
20260831201958 30 178 1.6 3.2 0.00 0.00 0.00 47 1018.9
20260831201459 30 117 0.0 3.2 0.00 0.00 0.00 46 1018.9
20260831200957 31 63 1.6 3.2 0.00 0.00 0.00 45 1018.9
20260831200458 31 89 1.6 6.4 0.00 0.00 0.00 44 1018.9
20260831195958 31 63 1.6 6.4 0.00 0.00 0.00 41 1019.0
20260831195457 31 46 1.6 4.8 0.00 0.00 0.00 43 1019.0
20260831194958 31 202 1.6 3.2 0.00 0.00 0.00 43 1019.1
20260831194457 31 89 1.6 4.8 0.00 0.00 0.00 43 1019.1
20260831193958 31 197 1.6 6.4 0.00 0.00 0.00 44 1019.1
20260831193457 31 178 3.2 8.0 0.00 0.00 0.00 36 1019.1
20260831192457 31 178 3.2 8.0 0.00 0.00 0.00 45 1019.2
20260831191957 31 211 3.2 9.7 0.00 0.00 0.00 45 1019.2
20260831191457 31 223 3.2 9.7 0.00 0.00 0.00 45 1019.2
20260831190957 31 189 3.2 8.0 0.00 0.00 0.00 45 1019.2
20260831190457 31 195 3.2 8.0 0.00 0.00 0.00 45 1019.2
20260831185958 31 314 3.2 8.0 0.00 0.00 0.00 42 1019.3
20260831184958 31 89 3.2 6.4 0.00 0.00 0.00 42 1019.3
20260831184457 31 231 3.2 6.4 0.00 0.00 0.00 44 1019.4
20260831183458 31 210 3.2 4.8 0.00 0.00 0.00 46 1019.6
20260831182957 31 223 3.2 11.3 0.00 0.00 0.00 47 1019.6
20260831182457 31 105 3.2 11.3 0.00 0.00 0.00 46 1019.7
20260831181957 31 197 3.2 9.7 0.00 0.00 0.00 48 1019.8
20260831181457 31 191 3.2 9.7 0.00 0.00 0.00 44 1019.7
20260831180958 31 1 3.2 8.0 0.00 0.00 0.00 50 1019.7
20260831180458 30 135 1.6 8.0 0.00 0.00 0.00 50 1019.8
20260831175958 30 213 3.2 6.4 0.00 0.00 0.00 48 1019.8
20260831175501 30 108 3.2 8.0 0.00 0.00 0.00 50 1019.8
20260831175001 30 122 3.2 8.0 0.00 0.00 0.00 52 1019.8
20260831174501 30 46 3.2 6.4 0.00 0.00 0.00 52 1019.8
20260831173501 29 223 3.2 8.0 0.00 0.00 0.00 52 1020.1
20260831172957 29 223 3.2 8.0 0.00 0.00 0.00 53 1020.2
20260831171957 29 227 1.6 6.4 0.00 0.00 0.00 55 1020.2
20260831171457 28 223 3.2 8.0 0.00 0.00 0.00 53 1020.3
20260831170957 28 46 3.2 8.0 0.00 0.00 0.00 54 1020.3
20260831170457 28 218 3.2 8.0 0.00 0.00 0.00 54 1020.3
20260831170000 28 215 3.2 8.0 0.00 0.00 0.00 54 1020.4
20260831164957 28 295 1.6 6.4 0.00 0.00 0.00 54 1020.6
20260831163958 28 124 1.6 6.4 0.00 0.00 0.00 48 1020.6
20260831163458 28 241 1.6 4.8 0.00 0.00 0.00 49 1020.6
20260831162958 28 89 1.6 6.4 0.00 0.00 0.00 50 1020.5
20260831162459 28 145 3.2 6.4 0.00 0.00 0.00 51 1020.6
20260831161457 28 1 1.6 4.8 0.00 0.00 0.00 55 1020.7
20260831160457 27 1 3.2 8.0 0.00 0.00 0.00 57 1020.8
20260831155958 27 269 3.2 8.0 0.00 0.00 0.00 54 1020.8
20260831155458 27 178 3.2 8.0 0.00 0.00 0.00 55 1020.8
20260831154958 26 165 1.6 6.4 0.00 0.00 0.00 57 1020.9
20260831154457 26 53 3.2 6.4 0.00 0.00 0.00 59 1020.8
20260831153958 26 197 1.6 6.4 0.00 0.00 0.00 60 1020.9
20260831153457 25 206 1.6 6.4 0.00 0.00 0.00 60 1020.9
20260831152457 25 234 1.6 6.4 0.00 0.00 0.00 60 1020.9
20260831151957 24 74 1.6 8.0 0.00 0.00 0.00 59 1020.9
20260831150959 23 63 1.6 6.4 0.00 0.00 0.00 55 1021.1
20260831150000 22 49 3.2 6.4 0.00 0.00 0.00 56 1021.1
20260831145457 22 89 3.2 6.4 0.00 0.00 0.00 50 1021.2
20260831144957 22 135 1.6 6.4 0.00 0.00 0.00 36 1021.2
20260831144459 21 68 1.6 4.8 0.00 0.00 0.00 24 1021.3
20260831143958 21 46 1.6 4.8 0.00 0.00 0.00 4 1021.2
20260831143457 21 269 1.6 6.4 0.00 0.00 0.00 1 1021.4
20260831142958 20 211 1.6 4.8 0.00 0.00 0.00 1 1021.5
20260831142457 20 89 1.6 6.4 0.00 0.00 0.00 1 1021.4
20260831141958 19 178 1.6 6.4 0.00 0.00 0.00 1 1021.4
20260831141458 18 46 1.6 4.8 0.00 0.00 0.00 1 1021.4
20260831141001 18 145 1.6 4.8 0.00 0.00 0.00 1 1021.5
20260831140458 17 314 1.6 4.8 0.00 0.00 0.00 1 1021.5
20260831140002 17 108 1.6 4.8 0.00 0.00 0.00 1 1021.4
20260831135001 16 89 1.6 4.8 0.00 0.00 0.00 1 1021.3
20260831134458 15 89 1.6 6.4 0.00 0.00 0.00 1 1021.3
20260831133958 15 89 1.6 6.4 0.00 0.00 0.00 1 1021.3
20260831133458 15 210 1.6 1.6 0.00 0.00 0.00 1 1021.3
20260831132957 14 46 1.6 4.8 0.00 0.00 0.00 1 1021.3
20260831132458 13 89 1.6 4.8 0.00 0.00 0.00 1 1021.4
20260831131958 13 76 1.6 3.2 0.00 0.00 0.00 1 1021.4
20260831131457 13 72 1.6 3.2 0.00 0.00 0.00 1 1021.5
20260831130957 12 314 1.6 3.2 0.00 0.00 0.00 1 1021.6
20260831125958 12 46 1.6 3.2 0.00 0.00 0.00 1 1021.7
20260831125458 12 269 1.6 3.2 0.00 0.00 0.00 1 1021.7